DW9852 Weather Reports


Display with metric or nautical units.
time (UTC)temp
F
wind
direction
speed
MPH
gust
MPH
rain 1hr
in
rain 24hr
in
rain mn
in
humidity
%
barometer
mb
20260905201553 92 59 2.0 7.0 0.00 0.00 0.00 57 1013.7
20260905200104 92 0 0.0 3.0 0.00 0.00 0.00 59 1014.0
20260905194558 91 84 1.0 5.0 0.00 0.00 0.00 58 1014.4
20260905193053 91 0 0.0 4.0 0.00 0.00 0.00 58 1014.5
20260905191551 93 205 2.0 5.0 0.00 0.00 0.00 58 1015.0
20260905190049 92 0 0.0 6.0 0.00 0.00 0.00 60 1015.1
20260905184559 92 114 3.0 8.0 0.00 0.00 0.00 59 1015.4
20260905183057 91 205 2.0 8.0 0.00 0.00 0.00 61 1015.6
20260905181604 91 259 3.0 9.0 0.00 0.00 0.00 62 1015.9
20260905180048 90 88 3.0 7.0 0.00 0.00 0.00 65 1016.0
20260905174555 89 0 3.0 9.0 0.00 0.00 0.00 68 1016.2
20260905173051 89 288 0.0 7.0 0.00 0.00 0.00 68 1016.3
20260905171550 88 191 2.0 6.0 0.00 0.00 0.00 73 1016.7
20260905170050 88 139 3.0 5.0 0.00 0.00 0.00 71 1016.9
20260905164545 87 0 2.0 9.0 0.00 0.00 0.00 71 1016.9
20260905163054 87 122 3.0 7.0 0.00 0.00 0.00 75 1017.1
20260905161550 87 0 0.0 8.0 0.00 0.00 0.00 75 1017.1
20260905160115 87 0 0.0 4.0 0.00 0.00 0.00 77 1017.1
20260905154554 86 0 0.0 3.0 0.00 0.00 0.00 78 1017.0
20260905153053 85 0 0.0 2.0 0.00 0.00 0.00 80 1016.9
20260905151557 83 108 0.0 2.0 0.00 0.00 0.00 83 1016.8
20260905150057 83 0 0.0 4.0 0.00 0.00 0.00 83 1016.8
20260905144554 84 86 0.0 1.0 0.00 0.00 0.00 83 1016.8
20260905143055 82 0 1.0 4.0 0.00 0.00 0.00 85 1016.7
20260905141549 82 133 0.0 1.0 0.00 0.00 0.00 86 1016.7
20260905140049 0 0.0 0.0 0.00 0.00 0.00 1016.6
20260905134601 0 0.0 0.0 0.00 0.00 0.00 1016.5
20260905133052 0 0.0 0.0 0.00 0.00 0.00 1016.4
20260905131548 0 0.0 0.0 0.00 0.00 0.00 1016.1
20260905130049 0 0.0 0.0 0.00 0.00 0.00 1016.0
20260905124554 0 0.0 0.0 0.00 0.00 0.00 1016.0
20260905123054 0 0.0 0.0 0.00 0.00 0.00 1015.8
20260905121549 0 0.0 0.0 0.00 0.00 0.00 1015.7
20260905114546 0 0.0 0.0 0.00 0.00 0.00 1015.7
20260905113055 0 0.0 0.0 0.00 0.00 0.00 1015.5
20260905111607 0 0.0 0.0 0.00 0.00 0.00 1015.5
20260905110056 0 0.0 0.0 0.00 0.00 0.00 1015.5
20260905104550 0 0.0 0.0 0.00 0.00 0.00 1015.4
20260905103055 0 0.0 0.0 0.00 0.00 0.00 1015.4
20260905101553 0 0.0 0.0 0.00 0.00 0.00 1015.3
20260905100055 0 0.0 0.0 0.00 0.00 0.00 1015.4
20260905094555 0 0.0 0.0 0.00 0.00 0.00 1015.4
20260905093056 0 0.0 0.0 0.00 0.00 0.00 1015.3
20260905091617 0 0.0 0.0 0.00 0.00 0.00 1015.1
20260905090116 0 0.0 0.0 0.00 0.00 0.00 1015.2
20260905084608 80 0 0.0 3.0 0.00 0.00 0.00 89 1015.3
20260905083057 80 72 0.0 3.0 0.00 0.00 0.00 88 1015.3
20260905081552 80 0 1.0 4.0 0.00 0.00 0.00 88 1015.4
20260905080055 80 61 0.0 3.0 0.00 0.00 0.00 88 1015.4
20260905074549 80 0 0.0 3.0 0.00 0.00 0.00 88 1015.6
20260905073051 80 0 0.0 3.0 0.00 0.00 0.00 88 1015.6
20260905071552 80 127 0.0 2.0 0.00 0.00 0.00 87 1015.8
20260905070059 80 0 0.0 3.0 0.00 0.00 0.00 86 1016.0
20260905064550 81 120 1.0 4.0 0.00 0.00 0.00 86 1015.8
20260905063045 81 80 0.0 5.0 0.00 0.00 0.00 85 1016.0
20260905061618 81 134 1.0 6.0 0.00 0.00 0.00 85 1015.9
20260905060116 81 0 1.0 5.0 0.00 0.00 0.00 84 1016.0
20260905054549 82 0 0.0 4.0 0.00 0.00 0.00 83 1015.8
20260905053052 82 56 0.0 9.0 0.00 0.00 0.00 82 1016.1
20260905051558 82 0 0.0 5.0 0.00 0.00 0.00 80 1015.9
20260905050055 83 110 1.0 7.0 0.00 0.00 0.00 79 1015.8
20260905044602 83 138 1.0 10.0 0.00 0.00 0.00 76 1016.0
20260905043049 84 150 1.0 6.0 0.00 0.00 0.00 72 1015.9
20260905041552 84 89 1.0 9.0 0.00 0.00 0.00 69 1015.9
20260905040051 85 180 3.0 8.0 0.00 0.00 0.00 67 1015.8
20260905034557 85 0 0.0 4.0 0.00 0.00 0.00 67 1015.7
20260905033058 85 147 1.0 5.0 0.00 0.00 0.00 67 1015.6
20260905031553 85 53 3.0 6.0 0.00 0.00 0.00 67 1015.4
20260905030051 86 0 4.0 11.0 0.00 0.00 0.00 66 1015.4
20260905024600 86 29 3.0 7.0 0.00 0.00 0.00 67 1015.1
20260905023054 86 120 2.0 7.0 0.00 0.00 0.00 67 1014.7
20260905021556 86 6 2.0 7.0 0.00 0.00 0.00 66 1014.5
20260905020051 86 0 3.0 10.0 0.00 0.00 0.00 64 1014.3
20260905014559 86 49 2.0 6.0 0.00 0.00 0.00 64 1014.2
20260905013055 86 0 1.0 4.0 0.00 0.00 0.00 66 1014.1
20260905011552 86 0 0.0 1.0 0.00 0.00 0.00 66 1014.1
20260905010051 87 0 0.0 0.0 0.00 0.00 0.00 65 1013.9
20260905004558 87 0 0.0 1.0 0.00 0.00 0.00 63 1014.0
20260905003055 88 0 0.0 4.0 0.00 0.00 0.00 62 1013.8
20260905001602 88 0 0.0 6.0 0.00 0.00 0.00 62 1013.7
20260905000110 89 0 1.0 6.0 0.00 0.00 0.00 63 1013.6
20260904234548 89 20 1.0 5.0 0.00 0.00 0.00 62 1013.6
20260904233114 89 101 3.0 6.0 0.00 0.00 0.00 63 1013.5
20260904231557 89 63 0.0 4.0 0.00 0.00 0.00 64 1013.4
20260904230051 89 98 0.0 5.0 0.00 0.00 0.00 63 1013.7
20260904224555 89 27 0.0 3.0 0.00 0.00 0.00 66 1013.8
20260904223122 89 0 0.0 3.0 0.00 0.00 0.00 66 1013.9
20260904221556 88 44 1.0 5.0 0.00 0.00 0.00 67 1014.1
20260904220051 88 0 0.0 0.0 0.00 0.00 0.00 65 1014.3
20260904214551 87 0 0.0 3.0 0.00 0.00 0.00 64 1014.3
20260904213055 86 0 0.0 4.0 0.00 0.00 0.00 66 1014.5
20260904211551 86 101 2.0 7.0 0.00 0.00 0.00 72 1014.8
20260904210113 87 45 1.0 5.0 0.00 0.00 0.00 72 1015.0
20260904204558 88 120 1.0 7.0 0.00 0.00 0.00 70 1015.1
20260904203101 89 0 0.0 3.0 0.00 0.00 0.00 68 1015.2